Location: Willingham
(52.3167°N, 0.0667°E)
Time: 11:47:02
(UTC+00:00)

Meteor 1-11 Rocket - Pass Details

Date: 19 May 2025
Orbit: 829 x 915 km, 81.2° (Epoch: 12 June)

Event Time Altitude Azimuth Distance (km) Brightness Sun altitude
Rises 22:42:09 0° 344° (NNW) 3,390 8.7 -15.9°
Reaches altitude 10° 22:44:35 10° 342° (NNW) 2,449 7.5 -16.0°
Maximum altitude 22:50:01 62° 263° (W) 932 3.9 -16.3°
Enters shadow 22:53:24 23° 189° (S) 1,686 4.7 -16.4°
